Location: ??????
(42.0089°N, 44.3281°E)
Time: 18:42:25
(UTC+00:00)

COSMOS 1275 DEB - Visible Passes

Search period start: 11 August 2022 00:00
Search period end: 21 August 2022 00:00
Orbit: 775 x 806 km, 82.9° (Epoch: 10 August)

Date Brightness Start Highest point End Pass type
(mag) Time Alt. Az. Time Alt. Az. Time Alt. Az.
13 Aug ? 17:03:40 10° NW 17:06:51 16° W 17:10:01 10° WSW visible
14 Aug ? 16:32:57 10° NNW 16:37:14 26° W 16:41:31 10° SW visible
17 Aug ? 16:46:20 10° NW 16:48:37 13° W 16:50:54 10° WSW visible
